Regional Weather Roundup
Issued by NWS

Home | Current Version | Previous Version | Text Only | Print | Product List | Glossary Off
Versions: 1 2 3 4 5 6 7 8 9 10 11 12 13 14 15 16 17 18 19 20 21 22 23 24 25 26 27 28 29 30 31 32 33 34 35 36 37 38 39 40 41 42 43 44 45 46 47 48 49 50

000
ASUS43 KLMK 040310
RWRKY
KENTUCKY REGIONAL WEATHER ROUNDUP
NATIONAL WEATHER SERVICE LOUISVILLE KY
1000 PM EST SAT DEC 03 2016

NOTE "FAIR" INDICATES FEW OR NO CLOUDS BELOW 12,000 FEET
WITH NO SIGNIFICANT WEATHER AND/OR OBSTRUCTIONS TO VISIBILITY.

KYZ001>023-026-027-061>063-070>075-040400-
WESTERN AND SOUTH CENTRAL KENTUCKY

CITY           SKY/WX    TMP DP  RH WIND       PRES   REMARKS
PADUCAH        LGT RAIN  40  33  76 E7        30.24F
HENDERSON      CLOUDY    39  28  65 E5        30.27F
OWENSBORO      CLOUDY    41  31  67 E6        30.29F
HOPKINSVILLE   DRIZZLE   39  34  81 NE5       30.26F
BOWLING GREEN  CLOUDY    41  34  76 NE5       30.28F
GLASGOW        CLOUDY    40  33  77 NE3       30.27F
$$

KYZ024-025-028>034-038-045-046-053-040400-
NORTH CENTRAL KENTUCKY

CITY           SKY/WX    TMP DP  RH WIND       PRES   REMARKS
LOUISVILLE/SDF CLOUDY    42  27  55 E3        30.29F
LOUISVILLE/LOU MOCLDY    42  28  57 CALM      30.30S
FORT KNOX      CLOUDY    40  29  65 E5        30.26F
$$

KYZ035>037-039>044-047>052-055>060-089>105-040400-
NORTHEAST KENTUCKY

CITY           SKY/WX    TMP DP  RH WIND       PRES   REMARKS
LEXINGTON      CLOUDY    39  28  64 CALM      30.29S
COVINGTON      CLOUDY    36  29  75 CALM      30.29S
FRANKFORT      CLOUDY    38  29  70 E3        30.28F
$$

KYZ054-064>069-076>088-106>120-040400-
SOUTHEAST KENTUCKY

CITY           SKY/WX    TMP DP  RH WIND       PRES   REMARKS
JACKSON        CLOUDY    37  28  70 CALM      30.27F
LONDON         CLOUDY    39  28  64 NE3       30.27F
SOMERSET       CLOUDY    37  30  75 E3        30.29F
MIDDLESBORO    CLOUDY    39  33  79 CALM      30.28S
MONTICELLO     CLOUDY    39  33  79 W7        30.29F WCI  34
$$





USA.gov is the U.S. government's official web portal to all federal, state and local government web resources and services.